Jackson, MI

4:57 AM EST on December 13, 2019 (GMT -0500)
Jackson County-Reynolds

Weather History for KJXN - November, 2019

Change the Weather History Date:

Thursday, November 14, 2019

  Actual Average Record
Temperature  
Mean Temperature 27 °F 41 °F  
Max Temperature 31 °F 49 °F 67 °F (1956)
Min Temperature 23 °F 33 °F 12 °F (1986)
Degree Days  
Heating Degree Days 38 24  
Month to date heating degree days 467 307  
Since 1 July heating degree days 956 955  
Cooling Degree Days 0 0  
Month to date cooling degree days 0 0  
Year to date cooling degree days 663 592  
Moisture  
Dew Point 21 °F    
Average Humidity 79    
Maximum Humidity 88    
Minimum Humidity 69    
Precipitation  
Precipitation 0.01 in 0.09 in 1.01 in (1957)
Month to date precipitation 0.61 1.23  
Year to date precipitation 32.52 28.26  
Sea Level Pressure  
Sea Level Pressure 30.17 in    
Wind  
Wind Speed 7 mph ()    
Max Wind Speed 17 mph    
Max Gust Speed 24 mph    
Visibility 6.1 miles    
Events Snow    
T = Trace of Precipitation, MM = Missing Value Source: Averaged Metar Reports

Daily Weather History Graph

Daily Weather History Graph

Search for Another Location

Airport or City:

Astronomy

Nov. 14, 2019 Rise Set
Actual Time 7:26 AM EST 5:17 PM EST
Civil Twilight 6:56 AM EST 5:47 PM EST
Nautical Twilight 6:22 AM EST 6:21 PM EST
Astronomical Twilight 5:49 AM EST 6:54 PM EST
Moon 7:00 PM EST (11/14) 9:22 AM EST (11/14)
Length of Visible Light 10h 50m
Length of Day
9h 50m
Waning Gibbous, 95% of the Moon is Illuminated
Nov 14
Waning Gibbous
Nov 19
Last Quarter
Nov 26
New
Dec 4
First Quarter
Dec 12
Full

Hourly Weather History & Observations

Time (EST) Temp. Windchill Dew Point Humidity Pressure Visibility Wind Dir Wind Speed Gust Speed Precip Events Conditions
12:56 AM 24.1 °F 17.0 °F 17.1 °F 75% 30.13 in 10.0 mi South 5.8 mph - N/A   Overcast
1:32 AM 24.1 °F 16.0 °F 18.0 °F 77% 30.08 in 10.0 mi South 6.9 mph - N/A   Overcast
1:56 AM 25.0 °F 16.3 °F 19.0 °F 78% 30.13 in 10.0 mi SSW 8.1 mph - N/A   Overcast
2:56 AM 25.0 °F 15.5 °F 19.0 °F 78% 30.13 in 6.0 mi SSW 9.2 mph - 0.00 in Snow Light Snow
3:44 AM 25.0 °F 15.5 °F 19.9 °F 81% 30.08 in 2.5 mi SSW 9.2 mph - 0.00 in Snow Light Snow
3:53 AM 24.8 °F 15.3 °F 19.4 °F 80% 30.08 in 1.8 mi SSW 9.2 mph - 0.00 in Snow Light Snow
3:56 AM 25.0 °F 15.5 °F 19.9 °F 81% 30.13 in 1.2 mi SSW 9.2 mph - 0.00 in Snow Light Snow
4:26 AM 25.0 °F 17.1 °F 21.0 °F 85% 30.08 in 3.0 mi SSW 6.9 mph - 0.00 in Snow Light Snow
4:56 AM 25.0 °F 17.1 °F 19.9 °F 81% 30.13 in 8.0 mi SSW 6.9 mph - 0.00 in   Overcast
5:38 AM 25.0 °F 17.1 °F 19.9 °F 81% 30.10 in 2.0 mi SSW 6.9 mph - 0.01 in Snow Light Snow
5:49 AM 25.0 °F 16.3 °F 19.9 °F 81% 30.10 in 4.0 mi SSW 8.1 mph - 0.01 in Snow Light Snow
5:56 AM 25.0 °F 16.3 °F 19.9 °F 81% 30.15 in 3.0 mi SSW 8.1 mph - 0.01 in Snow Light Snow
6:05 AM 25.0 °F 17.1 °F 19.9 °F 81% 30.10 in 2.5 mi SSW 6.9 mph - 0.00 in Snow Light Snow
6:41 AM 25.0 °F 17.1 °F 19.9 °F 81% 30.11 in 3.0 mi South 6.9 mph - 0.00 in Snow Light Snow
6:56 AM 25.0 °F 17.1 °F 21.0 °F 85% 30.16 in 2.5 mi South 6.9 mph - 0.00 in Snow Light Snow
7:24 AM 25.0 °F 18.1 °F 21.0 °F 85% 30.12 in 4.0 mi SSW 5.8 mph - 0.00 in Snow Light Snow
7:33 AM 25.0 °F 17.1 °F 21.0 °F 85% 30.12 in 5.0 mi SSW 6.9 mph - 0.00 in   Overcast
7:56 AM 25.0 °F 18.1 °F 21.0 °F 85% 30.18 in 6.0 mi SSW 5.8 mph - 0.00 in   Overcast
8:56 AM 26.1 °F 18.4 °F 19.9 °F 78% 30.20 in 8.0 mi SSW 6.9 mph - N/A   Overcast
9:27 AM 27.0 °F 18.7 °F 19.9 °F 75% 30.16 in 8.0 mi SSW 8.1 mph - N/A   Overcast
9:56 AM 27.0 °F 18.7 °F 19.9 °F 75% 30.21 in 8.0 mi SSW 8.1 mph - N/A   Overcast
10:56 AM 28.9 °F 21.9 °F 21.9 °F 75% 30.22 in 7.0 mi WSW 6.9 mph - N/A   Overcast
11:56 AM 30.0 °F 23.2 °F 23.0 °F 75% 30.22 in 7.0 mi SW 6.9 mph - N/A   Overcast
12:56 PM 30.0 °F 23.2 °F 24.1 °F 79% 30.21 in 6.0 mi SW 6.9 mph - N/A   Haze
1:56 PM 30.0 °F 22.4 °F 25.0 °F 82% 30.21 in 5.0 mi SW 8.1 mph - N/A   Haze
2:56 PM 30.0 °F 21.1 °F 25.0 °F 82% 30.21 in 4.0 mi SW 10.4 mph - N/A   Haze
3:24 PM 30.0 °F 23.2 °F 26.1 °F 85% 30.17 in 4.0 mi SW 6.9 mph - N/A   Overcast
3:56 PM 30.0 °F 21.1 °F 26.1 °F 85% 30.22 in 4.0 mi WSW 10.4 mph - N/A   Overcast
4:56 PM 30.0 °F 22.4 °F 25.0 °F 82% 30.23 in 6.0 mi SSW 8.1 mph - N/A   Haze
5:56 PM 30.0 °F 21.7 °F 24.1 °F 79% 30.25 in 10.0 mi SW 9.2 mph - N/A   Overcast
6:56 PM 30.0 °F 22.4 °F 24.1 °F 79% 30.27 in 10.0 mi WSW 8.1 mph - N/A   Overcast
7:56 PM 30.0 °F 21.1 °F 24.1 °F 79% 30.27 in 10.0 mi SW 10.4 mph - N/A   Overcast
8:56 PM 30.0 °F 20.5 °F 21.9 °F 72% 30.26 in 10.0 mi WSW 11.5 mph - N/A   Overcast
9:56 PM 30.0 °F 18.7 °F 21.0 °F 69% 30.27 in 10.0 mi WSW 16.1 mph - N/A   Overcast
10:56 PM 28.9 °F 19.8 °F 21.0 °F 72% 30.27 in 10.0 mi WSW 10.4 mph - N/A   Overcast
11:56 PM 28.9 °F 19.8 °F 21.0 °F 72% 30.27 in 9.0 mi WSW 10.4 mph - N/A   Overcast